Location: Cabrera Alta
(40.4135°N, 4.3544°W)
Time: 12:18:38
(UTC+00:00)

Daily predictions for brighter satellites

Satellite Brightness Start Highest point End
(mag) Time Altitude Azimuth Time Altitude Azimuth Time Altitude Azimuth
CENTAUR R/B 3.4 19:51:20 10° NNW 19:59:40 72° NE 20:08:45 10° SE
USA 238 DEB 4.4 19:55:49 10° NNW 20:02:54 50° NE 20:10:20 10° ESE
USA 238 4.4 19:55:56 10° NNW 20:03:00 50° NE 20:10:26 10° ESE
Tsikada Rocket 4.1 19:56:44 10° N 20:03:02 63° E 20:09:10 10° SSE
IGS 5A 3.6 20:01:49 10° SSE 20:05:53 58° ENE 20:09:59 10° N
USA 186 1.8 20:03:32 10° S 20:05:59 54° W 20:08:22 10° NNW
PSLV R/B 4.4 20:05:40 10° NNE 20:09:26 37° E 20:13:12 10° SSE
Cosmos 1812 3.3 20:06:12 10° SSW 20:09:57 59° W 20:13:43 10° N
COBE Rocket 4.1 20:07:08 10° SSE 20:12:14 68° ENE 20:17:14 10° N
Cosmos 1315 Rocket 3.7 20:08:33 10° N 20:12:17 34° ENE 20:15:57 10° SE
SJ-6B 3.1 20:11:53 10° S 20:15:42 66° W 20:19:28 10° NNW
BREEZE-M (TANK) 3.5 20:13:31 10° WSW 20:16:29 67° NNW 20:25:26 10° ENE
Ariane Rocket 4.0 20:12:34 10° SE 20:16:59 31° ENE 20:21:25 10° N
ATLAS 5 CENTAUR R/B 4.0 20:06:31 10° WSW 20:17:26 19° SW 20:22:25 10° S
USA 129 1.2 20:15:10 10° SSE 20:17:30 89° ENE 20:19:07 10° NNW
ASTRO E2 4.2 20:15:23 10° SW 20:18:19 20° S 20:21:00 11° SE
Resurs 1-3 3.6 20:16:37 10° SSE 20:20:59 82° ENE 20:25:23 10° N
OAO 3 Rocket 3.7 20:19:26 10° WSW 20:24:04 41° S 20:28:43 10° ESE
Cosmos 1544 2.9 20:23:02 10° N 20:26:34 78° E 20:30:05 10° S
Cosmos 1666 Rocket 3.6 20:26:53 10° N 20:31:16 65° E 20:35:38 10° SSE
Cosmos 2219 3.9 20:28:17 10° N 20:33:32 38° ENE 20:37:55 14° ESE
IRS-1A Rocket 4.4 20:29:44 10° SSE 20:35:14 61° ENE 20:40:54 10° N
Cosmos 1151 Rocket 3.1 20:31:17 10° S 20:35:34 81° W 20:39:51 10° N
Cosmos 2233 Rocket 4.2 20:29:33 10° SSW 20:35:53 77° W 20:42:13 10° N
Aureole 1 Rocket 3.4 20:35:04 12° SSE 20:37:40 25° ESE 20:40:17 10° NE
Meteor 2-6 Rocket 4.2 20:33:23 10° SSW 20:38:46 81° W 20:44:15 10° N
IRAS Rocket 4.3 20:34:00 10° NNE 20:39:36 65° ESE 20:45:11 10° S
Cosmos 1570 Rocket 4.0 20:35:07 10° NNW 20:40:23 83° ENE 20:45:13 12° SSE
Resurs 01 Rocket 1.7 20:37:03 12° SSE 20:41:05 65° ENE 20:45:28 10° N
Cosmos 1633 Rocket 3.0 20:37:53 10° N 20:42:16 70° E 20:46:12 12° SSE
BREEZE M DEB (TANK) 4.3 20:39:06 10° NW 20:42:29 38° NNE 20:52:17 10° E
SJ 16-02 3.0 20:46:09 15° ESE 20:46:41 15° E 20:49:09 10° ENE
Cosmos 1184 Rocket 3.9 20:47:12 21° ESE 20:47:44 22° E 20:50:10 10° NE
Cosmos 1486 Rocket 4.1 20:44:39 10° S 20:49:49 55° ESE 20:54:59 10° NNE
BREEZE-M DEB (TANK) 4.3 20:49:10 10° NNW 20:50:23 13° N 20:51:42 10° NE
Cosmos 1470 Rocket 3.8 20:46:22 10° N 20:50:34 48° E 20:53:21 19° SSE
MOS 1 4.3 20:46:12 10° SSE 20:51:50 87° WSW 20:57:32 10° NNW
CZ-4B R/B 1.5 20:48:59 10° N 20:52:11 68° WNW 20:55:18 10° SSW
Cosmos 2263 Rocket 4.2 20:49:27 10° NNE 20:52:45 16° NE 20:56:02 10° E
RESURS DK-1 4.4 20:54:25 12° E 20:54:25 12° E 20:55:15 10° ENE
Cosmos 1743 3.6 20:50:20 10° NNE 20:53:46 32° ENE 20:55:24 22° ESE
Cosmos 1340 3.0 20:54:24 20° SSE 20:56:37 43° E 21:00:11 10° NNE
Cosmos 1536 3.2 20:54:54 10° N 20:58:47 46° E 21:00:49 24° SE
Cosmos 1464 Rocket 4.1 20:54:10 10° SSE 21:00:09 57° E 21:06:11 10° NNE
Gbstr 26 Del rocket 4.4 20:54:41 10° WNW 21:01:52 59° SW 21:06:07 20° SSE
Cosmos 1515 Rocket 3.5 20:58:55 14° S 21:02:30 63° E 21:06:50 10° NNE
SPOT 5 4.0 21:00:20 19° ESE 21:03:14 32° ENE 21:07:50 10° N
ATLAS 2AS CENTAUR R/B 3.5 20:56:20 10° S 21:03:17 36° ESE 21:10:07 10° NE
Cosmos 2344 3.5 20:58:02 10° SSW 21:05:39 63° ESE 21:12:59 10° NE
Cosmos 2227 Rocket 2.2 21:00:19 10° NNW 21:06:01 78° ENE 21:09:45 22° SSE
NOSS 3-4 (A) 3.5 21:02:15 10° SW 21:07:53 74° NW 21:13:58 10° NNE
NOSS 3-4 (C) 3.5 21:02:18 10° SW 21:07:58 75° NW 21:14:04 10° NNE
EXPRESS MD2 4.4 21:06:33 10° NW 21:12:00 43° NNE 21:14:03 20° E
Cosmos 1980 Rocket 2.4 21:09:15 12° S 21:14:11 50° ESE 21:19:38 10° NE
Helios 1A Rocket 3.4 21:13:00 29° ESE 21:14:29 42° ENE 21:18:16 10° N
SL-4 R/B 3.0 21:10:15 10° NW 21:14:36 43° NNE 21:17:09 21° E
Cosmos 2369 3.7 21:11:01 10° S 21:16:33 61° ESE 21:22:08 10° NNE
CARTOSAT-1 3.5 21:14:33 28° SSE 21:16:48 72° ENE 21:21:06 10° N
SPOT 1/Viking Rocket 3.8 21:13:45 16° S 21:17:51 67° WSW 21:23:01 10° NNW
Cosmos 1503 Rocket 4.1 21:14:17 15° S 21:18:28 58° ESE 21:23:40 10° NNE
Terra 3.0 21:17:21 22° ESE 21:19:06 28° ENE 21:23:10 10° N
USA 245 4.3 21:16:01 24° SSE 21:19:30 73° ENE 21:25:45 10° N
Nadezhda 4 Rocket 4.1 21:16:50 10° N 21:22:58 57° E 21:26:15 27° SSE
ARIANE 5 R/B 4.0 21:22:17 21° E 21:23:35 25° ENE 21:27:14 10° NNE
CZ-2C R/B 4.3 21:19:20 10° NNE 21:23:50 41° E 21:25:20 32° SE
ISS -0.9 21:22:50 10° NNW 21:24:37 14° N 21:26:23 10° NE
Cosmos 921 Rocket 3.7 21:21:14 10° N 21:25:32 41° ENE 21:26:56 32° ESE
Cosmos 389 Rocket 2.3 21:26:50 10° N 21:30:21 85° E 21:31:09 51° SSE
Cosmos 1697 Rocket 3.4 21:28:52 10° SW 21:34:25 56° WNW 21:40:00 10° NNE
Cosmos 405 4.3 21:31:56 10° NNW 21:35:02 33° W 21:36:39 21° SW
ERS-1 Rocket 3.2 21:33:21 34° SE 21:35:17 54° ENE 21:40:11 10° N
ATLAS 3B R/B 4.5 21:32:15 10° NNW 21:38:06 25° NE 21:44:05 10° E
Cosmos 2297 Rocket 3.5 21:38:06 10° NW 21:43:07 34° WSW 21:46:51 16° SSW
Cosmos 1378 4.0 21:46:30 34° ENE 21:46:30 34° ENE 21:49:21 10° NNE
Meteor 1-18 Rocket 4.5 21:44:34 36° SE 21:46:29 51° E 21:51:56 10° NNE
Meteor 2-14 Rocket 4.4 21:40:49 10° N 21:46:53 74° E 21:49:33 36° SSE
Cosmos 2026 Rocket 4.5 21:42:14 10° N 21:48:04 43° ENE 21:50:07 33° ESE
Meteor 2-9 Rocket 4.2 21:45:43 10° N 21:51:31 73° E 21:53:35 40° SSE
Ariane Rocket 4.5 21:52:22 14° SSW 21:55:53 30° W 22:00:20 10° NW
SL-16 R/B 3.2 21:58:18 29° E 21:58:18 29° E 22:02:45 10° NE
Cosmos 2034 Rocket 4.2 21:56:33 20° SSW 22:01:04 69° W 22:07:25 10° N
OAO 3 Rocket 3.8 22:02:32 10° WSW 22:06:37 40° SSW 22:06:37 40° SSW
Cosmos 1733 Rocket 3.8 22:12:05 10° N 22:16:08 38° ENE 22:16:08 38° ENE
Cosmos 2278 3.7 22:13:30 30° SSW 22:16:27 82° WNW 22:22:10 10° NNE
H-2A ROCKET BODY 4.4 21:20:26 10° W 22:16:30 52° SSW 22:22:01 34° SSE
Cosmos 44 Rocket 4.3 22:12:25 10° NNW 22:16:41 33° NE 22:17:35 30° ENE
Cosmos 1346 Rocket 3.3 22:17:42 48° NE 22:17:42 48° NE 22:20:56 10° NNE
Resurs 01 Rocket 4.4 22:16:53 10° WSW 22:18:00 11° W 22:19:07 10° WNW
Cosmos 783 Rocket 4.4 22:13:32 10° NNW 22:18:45 85° WSW 22:19:41 61° S
Meteor 2-8 Rocket 4.3 22:19:56 49° SSE 22:21:35 74° E 22:27:41 10° NNE
Cosmos 1862 Rocket 4.1 22:24:33 45° ENE 22:24:33 45° ENE 22:28:19 10° NNE
SJ 16-02 2.3 22:23:01 29° WSW 22:24:47 45° WNW 22:29:00 10° N
Cosmos 2082 4.2 22:21:14 10° NW 22:26:38 49° WSW 22:28:01 40° SSW
Cosmos 2360 Rocket 3.7 22:28:42 21° E 22:28:42 21° E 22:31:39 10° NE
Cosmos 2279 Rocket 4.0 22:27:08 51° SE 22:28:15 59° E 22:34:21 10° NNE
Cosmos 1777 Rocket 4.3 22:26:35 36° SW 22:28:39 65° WNW 22:33:52 10° NNE
USA 215 3.1 22:22:32 10° NE 22:29:05 69° SE 22:33:05 25° SSW
RESURS DK-1 3.0 22:30:11 44° W 22:30:59 51° WNW 22:35:00 10° NNE
Cosmos 2263 Rocket 2.0 22:31:48 10° NNW 22:37:25 84° WSW 22:38:10 67° S
Meteor 2-15 4.3 22:37:02 54° S 22:38:33 89° WNW 22:44:38 10° N
Cosmos 773 Rocket 4.3 22:34:33 10° NNW 22:39:39 55° WSW 22:40:17 51° SW
Cosmos 2228 Rocket 4.5 22:39:08 28° WSW 22:40:36 35° WNW 22:44:48 10° N
SPOT 5 4.4 22:39:33 27° SW 22:41:11 32° W 22:45:51 10° NNW
USA 81 4.2 22:42:22 55° SW 22:43:20 68° W 22:48:37 10° N
Cosmos 1066 Rocket 4.3 22:45:37 57° ESE 22:45:54 58° E 22:51:30 10° NNE
Cosmos 2180 Rocket 4.4 22:47:58 60° SE 22:48:40 64° E 22:54:43 10° NNE
Cosmos 2227 Rocket 4.5 22:46:39 10° WNW 22:49:17 13° W 22:51:35 11° WSW
Meteor 1-4 Rocket 4.4 22:48:18 10° N 22:50:04 25° NNE 22:50:04 25° NNE
ATLAS 2AS CENTAUR R/B 3.6 22:46:25 10° SW 22:54:02 54° NW 23:01:28 10° NNE
SL-4 R/B 3.7 22:50:05 10° WNW 22:52:35 27° W 22:52:35 27° W
Terra 3.1 22:56:14 29° WSW 22:56:46 29° W 23:00:55 10° NW
Cosmos 1980 Rocket 4.2 22:53:53 10° WSW 22:58:26 25° NW 23:03:03 10° N
Meteor 2-4 Rocket 4.5 22:56:56 34° SW 22:58:57 48° WNW 23:04:29 10° N
ARIANE 5 R/B 3.9 22:59:49 31° W 22:59:52 31° W 23:03:53 10° NW
Cosmos 2333 Rocket 3.8 23:02:26 21° E 23:02:26 21° E 23:05:24 10° NE
ISS -1.5 22:59:00 10° NW 23:00:51 25° NNW 23:00:51 25° NNW
USA 267 4.4 22:57:52 15° E 23:02:49 39° NNE 23:08:47 10° NW
Cosmos 1975 4.3 23:00:14 10° NNW 23:03:24 31° WNW 23:03:24 31° WNW
Cosmos 1726 4.3 23:00:48 10° NNE 23:02:25 19° NE 23:02:25 19° NE
Cosmos 2322 Rocket 2.0 23:04:26 76° ESE 23:04:26 76° ESE 23:10:00 10° NNE
Spot 4 4.3 23:05:41 50° ENE 23:05:41 50° ENE 23:10:03 10° N
Cosmos 1805 4.5 23:03:11 10° N 23:05:47 39° N 23:05:47 39° N
Cosmos 1538 Rocket 4.0 23:04:57 10° NNW 23:10:02 73° W 23:10:02 73° W
Okean 1-7 3.9 23:18:13 44° NNE 23:18:13 44° NNE 23:21:22 10° NNE
Cosmos 1844 Rocket 3.3 23:13:01 10° N 23:18:21 44° ENE 23:18:54 42° ENE
Cosmos 1655 Rocket 3.9 23:15:01 10° N 23:21:15 69° E 23:21:44 66° ESE
Cosmos 923 Rocket 4.1 23:23:20 10° NNW 23:28:27 69° NE 23:28:27 69° NE
ATLAS 3B R/B 2.8 23:22:21 10° NNW 23:29:49 88° ENE 23:31:23 61° SE
Cosmos 1844 4.2 23:26:48 10° NNW 23:32:26 49° ENE 23:33:01 47° E
Cosmos 2219 Rocket 3.4 23:34:03 29° ENE 23:34:03 29° ENE 23:37:44 10° NE
Cosmos 1703 Rocket 4.3 23:34:24 51° N 23:34:24 51° N 23:37:45 10° N
Meteor 1-15 Rocket 4.2 23:30:08 10° N 23:35:45 74° ENE 23:35:45 74° ENE
Cosmos 1937 Rocket 3.9 23:37:22 56° NE 23:37:22 56° NE 23:41:43 10° NNE
Cosmos 2237 4.4 23:36:28 60° W 23:37:03 64° WNW 23:42:45 10° NNE
SL-16 R/B 3.3 23:40:06 32° W 23:41:51 39° WNW 23:47:10 10° N
Cosmos 1818 4.4 23:40:40 10° NNW 23:45:51 43° NE 23:46:33 40° ENE
Cosmos 2112 Rocket 4.2 23:44:02 10° NNW 23:49:00 66° NE 23:49:00 66° NE
Cosmos 1680 Rocket 3.6 23:46:06 10° NNW 23:50:54 72° N 23:50:54 72° N
Meteor 1-12 Rocket 4.4 23:45:59 10° NNW 23:51:52 64° W 23:51:53 64° W
Cosmos 2242 Rocket 4.4 23:53:09 52° NNW 23:53:09 52° NNW 23:56:40 10° N
COSMOS 2428 3.8 23:55:02 32° E 23:55:02 32° E 23:59:06 10° NE
